Regional Weather Roundup
Issued by NWS Goodland, KS

Home | Current Version | Previous Version | Text Only | Print | Product List | Glossary Off
Versions: 1 2 3 4 5 6 7 8 9 10 11 12 13 14 15 16 17 18 19 20 21 22 23 24 25 26 27 28 29 30 31 32 33 34 35 36 37 38 39 40 41 42 43 44 45 46 47 48 49 50

304
ASUS43 KGLD 050108
RWRGLD

GOODLAND FORECAST AREA HOURLY WEATHER ROUNDUP
NATIONAL WEATHER SERVICE GOODLAND KS
700 PM MDT WED MAY 04 2016

...OFFICIAL OBSERVATIONS...

CITY           SKY/WX    TMP DP  RH WIND       PRES   REMARKS
GOODLAND KS    CLEAR     68  48  48 E7        30.10F
HILL CITY KS   CLEAR     71  44  37 E3        30.06F
IMPERIAL NEB   CLEAR     73  43  33 NE5       30.08F
MCCOOK NEB     CLEAR     69  44  40 E8        30.06S
AKRON CO       CLEAR     68  41  37 E7        30.12F
BURLINGTON CO  CLEAR     70  41  34 E9        30.12F
LIMON CO       CLEAR     67  37  33 E8        30.15F
$$

...UNOFFICIAL OBSERVATIONS...

CITY           SKY/WX    TMP DP  RH WIND       PRES   REMARKS
COLBY KS       CLEAR     70  50  49 N3        30.10S
LENORA KS        N/A     69  32  25 MISG        N/A
NORTON KS      CLEAR     68  37  32 NE3       30.06S
SHARON SPRINGS   N/A     72  46  39 CALM        N/A
KIT CARSON CO    N/A     74  40  28 MISG        N/A
YUMA CO          N/A     71  43  37 CALM        N/A
$$




USA.gov is the U.S. government's official web portal to all federal, state and local government web resources and services.